Find Starlink 31640

NORAD ID: 59748 Int'l Des: 2024-090 Owner: SPXS Country: US Constellation: starlink operational
LEOCIRCULAR

当前视图

正在加载3D地球...

About Starlink 31640

Starlink 31640 (NORAD 59748) is a starlink constellation satellite (v2 mini) launched May 13, 2024 by SPXS of US. It operates in LEO, CIRCULAR orbit with a mass of 730.00 kg.

即将过境

Passes for default location (London). Set your location on the main map for personalized predictions.

高度历史

Loading altitude history...

两行轨道根数

1 59748U 24090U 26263.43705567 -.00000243 00000-0 69373-6 0 9998
2 59748 43.0025 163.7130 0000916 274.5637 85.5110 15.27575463133226
Epoch: Sep 20, 2026 • Age: 20 hours

当前状态

高度 490.9 km
远地点 / 近地点 N/A
速度 7.62 km/s
星下点 -30.79°S, 19.15°E
发射日期 May 13, 2024
运行时间 2.3 years
类型 internet

技术详情

分类 Payload
质量 730.00 kg
干质量 700.00 kg
长度 0.30 m
跨度 29.00 m
形状 ? Box + pan
制造商 SPXS
平台类型 Starlink V2M
阶段状态 In Orbit
所有者/国家 SPXS/US

Most Searched